Powrót do katalogu

MOLNIYA 3-20

AktywnyŁącznośćHEO
NORAD 13875·PAYLOAD·🇷🇺 Russia

Wystrzelony Mar 11, 1983 z Plesetsk Cosmodrome

Loading…

Następne Przeloty (najbliższe 24 godziny)

TLE

ŚwieżeSource: Space-Track

Epoka: Sep 9, 2026, 19:17 UTC

1 13875U 83015A   26252.80392556  .00001433  00000-0  00000+0 0  9996
2 13875  62.0130 134.9552 7133316 272.3545  15.1163  2.00642052254716

Śledź MOLNIYA 3-20 w czasie rzeczywistym z AllMySat

Download on the App Store